[[{"header":{"parameterUnit":"m.s-1","parameterCategory":1,"la1":30.2992,"la2":30.254,"lo1":-89.0895,"lo2":-89.0443,"dy":0.0025,"dx":0.0025,"nx":19,"ny":19,"refTime":"2026-05-14T09:00:00:Z","depth":0,"parameterNumber":2,"parameterNumberName":"U-component_of_WINDS"},"data":[0,0,0,1.7668,1.767,1.773,1.773,1.7817,1.7818,0,0,0,0,0,0,0,0,0,0,0,1.7656,1.7657,1.7668,1.767,1.773,1.773,1.7817,1.7818,0,0,0,0,0,0,0,0,0,0,0,1.7656,1.7657,1.7658,1.767,1.773,1.773,1.7816,1.7768,0,0,0,0,0,0,0,0,0,0,1.7708,1.7702,1.7657,1.7658,1.7671,1.773,1.773,1.7765,1.7771,1.7794,0,1.7816,0,1.7818,1.7824,1.7824,0,0,0,1.7666,1.7697,1.7709,1.7658,1.7671,1.7729,1.7701,1.7768,1.7775,1.7802,1.7817,1.782,1.782,1.7825,1.7825,1.7974,1.7975,0,0,1.7662,1.767,1.7704,1.7713,1.7704,1.77,1.7703,1.7772,1.7789,1.7817,1.7822,1.7821,1.7825,1.7826,1.7973,1.7974,0,0,0,1.7656,1.7668,1.7677,1.771,1.772,1.7701,1.7706,1.7786,1.7789,1.7823,1.7822,1.7826,1.7827,1.7972,1.7974,1.8026,0,0,0,1.7654,1.7664,1.7676,1.7681,1.7719,1.7754,1.7719,1.7784,1.7791,1.7822,1.7826,1.7828,1.7971,1.7973,1.8022,1.8049,0,0,0,1.765,1.7664,1.7674,1.7682,1.7708,1.7752,1.7758,1.7785,1.7791,1.7825,1.7828,1.797,1.7973,1.8019,1.8044,1.8092,0,0,0,1.7649,1.7719,1.7675,1.7753,1.7707,1.7784,1.7758,1.7815,1.7849,1.7826,1.7971,1.7973,1.8018,1.8041,1.8088,1.8134,1.8153,0,0,1.7741,1.773,1.7775,1.7738,1.7825,1.7774,1.7869,1.7893,1.7889,1.7946,1.795,1.8024,1.8044,1.8091,1.8258,1.8274,0,0,0,1.7807,1.784,1.7861,1.7895,1.7916,1.7936,1.7945,1.7955,1.8003,1.792,1.8053,1.8065,1.8092,1.8114,1.8127,1.8151,1.7983,1.7983,1.7983,1.7948,1.794,1.8015,1.8015,1.8048,1.8058,1.8085,1.8099,1.808,1.8112,1.8129,1.8231,1.8257,1.8267,1.8291,1.8152,1.8152,1.8152,1.8152,1.8083,1.8129,1.8104,1.8168,1.8159,1.8213,1.8226,1.8211,1.8261,1.8217,1.8241,1.8195,1.8284,1.8305,1.8156,1.8155,1.8155,1.8155,1.8154,1.8175,1.8196,1.8206,1.8256,1.8295,1.8293,1.8342,1.8332,1.8323,1.8347,1.8365,1.8364,1.8363,1.8356,1.8357,1.8357,1.8357,1.8358,1.8358,1.8266,1.8277,1.8319,1.8349,1.8371,1.8398,1.841,1.8431,1.8452,1.8441,1.8441,1.8421,1.8294,1.8262,1.8363,1.8362,1.8362,1.8361,1.8361,1.8407,1.8374,1.844,1.8462,1.8497,1.8538,1.8525,1.857,1.8586,1.8611,1.8586,1.8493,1.8481,1.847,1.8444,1.8586,1.8586,1.8586,1.8586,1.8485,1.8478,1.8544,1.858,1.8614,1.861,1.8687,1.8698,1.8704,1.8714,1.8692,1.8657,1.8647,1.8641,1.8626,1.8602,1.8781,1.8781,1.8781,1.8572,1.8568,1.8634,1.864,1.8667,1.8692,1.8764,1.8807,1.8807,1.8789,1.8722,1.8714,1.8657,1.8638,1.8619,1.8597,1.8552,0,0]},{"header":{"parameterUnit":"m.s-1","parameterCategory":1,"la1":30.2992,"la2":30.254,"lo1":-89.0895,"lo2":-89.0443,"dy":0.0025,"dx":0.0025,"nx":19,"ny":19,"refTime":"2026-05-14T09:00:00:Z","depth":0,"parameterNumber":3,"parameterNumberName":"V-component_of_WINDS"},"data":[0,0,0,-3.1923,-3.1927,-3.2107,-3.2108,-3.2339,-3.2341,0,0,0,0,0,0,0,0,0,0,0,-3.1868,-3.187,-3.1923,-3.1927,-3.2107,-3.2108,-3.2338,-3.2341,0,0,0,0,0,0,0,0,0,0,0,-3.1868,-3.1869,-3.1871,-3.1928,-3.2107,-3.2108,-3.2338,-3.2202,0,0,0,0,0,0,0,0,0,0,-3.2027,-3.1975,-3.1869,-3.1871,-3.1929,-3.2107,-3.2108,-3.2195,-3.221,-3.2256,0,-3.2296,0,-3.2322,-3.2356,-3.2357,0,0,0,-3.1928,-3.1963,-3.2012,-3.1872,-3.193,-3.2107,-3.2026,-3.2204,-3.2221,-3.2276,-3.23,-3.2308,-3.2326,-3.2357,-3.2359,-3.2619,-3.262,0,0,-3.1918,-3.1901,-3.2,-3.2023,-3.1994,-3.202,-3.2032,-3.2214,-3.2239,-3.23,-3.2314,-3.233,-3.2359,-3.2361,-3.2618,-3.2619,0,0,0,-3.1889,-3.1893,-3.1939,-3.2014,-3.2046,-3.2026,-3.2039,-3.2231,-3.2247,-3.2316,-3.2332,-3.236,-3.2363,-3.2617,-3.2618,-3.2659,0,0,0,-3.1883,-3.1876,-3.1934,-3.1925,-3.2043,-3.214,-3.2051,-3.2234,-3.2255,-3.2331,-3.236,-3.2365,-3.2615,-3.2618,-3.2656,-3.2682,0,0,0,-3.1857,-3.1873,-3.1899,-3.1924,-3.2001,-3.2138,-3.2164,-3.2239,-3.2265,-3.2357,-3.2366,-3.2615,-3.2617,-3.2652,-3.2677,-3.2746,0,0,0,-3.1824,-3.1933,-3.1899,-3.2027,-3.1999,-3.2161,-3.2163,-3.2285,-3.2369,-3.2361,-3.2616,-3.2618,-3.2651,-3.2673,-3.2742,-3.2802,-3.2825,0,0,-3.1952,-3.1948,-3.2024,-3.1999,-3.2163,-3.2135,-3.2305,-3.2399,-3.2424,-3.2553,-3.2559,-3.2657,-3.2676,-3.2745,-3.2958,-3.2977,0,0,0,-3.2058,-3.2113,-3.216,-3.2239,-3.2312,-3.2378,-3.2447,-3.2482,-3.2592,-3.2486,-3.2701,-3.2713,-3.2754,-3.2784,-3.2799,-3.2837,-3.2631,-3.263,-3.263,-3.2214,-3.2239,-3.2368,-3.2415,-3.2491,-3.2562,-3.2626,-3.2685,-3.2689,-3.2739,-3.2778,-3.2904,-3.2938,-3.295,-3.2988,-3.2811,-3.2811,-3.2811,-3.2811,-3.2403,-3.2485,-3.2488,-3.2613,-3.264,-3.2746,-3.2818,-3.2817,-3.292,-3.2877,-3.2915,-3.2866,-3.2969,-3.3004,-3.2815,-3.2814,-3.2814,-3.2813,-3.2813,-3.2509,-3.2553,-3.2592,-3.2709,-3.2795,-3.284,-3.2939,-3.296,-3.298,-3.3017,-3.3061,-3.3061,-3.3064,-3.3036,-3.3037,-3.3037,-3.3038,-3.3038,-3.3038,-3.2603,-3.2647,-3.2727,-3.2814,-3.2867,-3.294,-3.3011,-3.3065,-3.3129,-3.3137,-3.3137,-3.3137,-3.2973,-3.2932,-3.3045,-3.3044,-3.3043,-3.3042,-3.3042,-3.2788,-3.2749,-3.2873,-3.2927,-3.3031,-3.3116,-3.3141,-3.3248,-3.3295,-3.3343,-3.3335,-3.321,-3.3208,-3.3196,-3.3162,-3.3328,-3.3328,-3.3328,-3.3328,-3.2878,-3.2878,-3.301,-3.3094,-3.3179,-3.3214,-3.3355,-3.3411,-3.3464,-3.3495,-3.3474,-3.343,-3.3417,-3.3423,-3.3406,-3.3375,-3.3591,-3.3592,-3.3592,-3.2993,-3.3003,-3.3118,-3.3168,-3.3251,-3.3322,-3.3456,-3.3553,-3.3605,-3.3603,-3.352,-3.3509,-3.3439,-3.3415,-3.3412,-3.3386,-3.3329,0,0]}]]